SCP
0 0 0 0 0 0 0 0 0 0 0 0 0 0 0 0 0 0 0 0 0 0 0 0 0 0 0 0 0 0 0 0 0 0 0 0 0 0 0 0 0 0 0 0 0 0 0 0 0 0 0 0 0 0
0 0 0 0 0 0 0 0 0 0 0 0 0 0 0 0 0 0 0 0 0 0 0 0 0 0 0 0 0 0 0 0 0 0 0 0 0 0 0 0 0 0 0 0 0 0 0 0 0 0 0 0 0 0
0 0 0 0 0 0 0 0 0 0 0 0 0 0 0 0 0 0 0 0 0 0 0 0 0 0 0 0 0 0 0 0 0 0 0 0 0 0 0 0 0 0 0 0 0 0 0 0 0 0 0 0 0 0
0 0 0 0 0 0 0 0 0 0 0 0 0 0 0 0 0 0 0 0 0 0 0 0 0 0 0 0 0 0 0 0 0 0 0 0 0 0 0 0 0 -0 -0 0 0 0 0 0 0 0 0 0 -0 -0
0 0 0 0 0 0 0 0 0 0 0 0 0 0 0 0 0 0 0 0 0 0 0 0 0 0 0 0 0 0 0 0 0 0 0 0 0 0 0 0 0 0 0 -0 -0 0 0 0 0 0 0 0 0 0
0 0 0 0 0 0 0 0 0 0 0 0 0 0 0 0 0 0 0 0 0 0 0 0 0 0 0 0 0 0 0 -0 0 0 0 0 0 0 0 0 0 0 0 0 0 0 -0 0 0 0 0 0 0 0
0 0 0 0 0 0 0 0 0 0 0 0 0 0 0 0 0 0 0 0 0 0 0 0 0 0 0 0 0 0 0 0 0 0 0 0 0 0 0 0 0 0 0 0 -0 -0 0 0 0 0 0 0 0 0
0 0 0 0 0 0 0 0 0 0 0 0 0 0 0 0 0 0 0 0 0 0 0 0 0 0 0 0 0 0 0 0 0 0 0 0 0 0 0 0 0 0 -0 0 0 0 0 0 0 0 0 0 0 0
0 0 0 0 0 0 0 0 0 0 0 0 0 0 0 0 0 0 0 0 0 0 0 0 0 0 0 0 0 0 0 0 0 0 0 0 0 0 -0 0 0 0 0 0 0 0 0 0 0 0 0 0 0 0
-0 -0 0 0 0 0 0 0 0 0 0 0 0 0 0 0 0 0 0 0 0 0 0 0 0 0 0 0 0 0 0 0 0 0 0 0 0 -0 0 0 0 0 0 -0 0 0 0 0 0 0 0 0 0 0
-0 -0 -0 0 0 0 0 0 0 0 0 0 0 0 0 0 0 0 0 0 0 0 0 0 0 0 0 0 0 0 0 0 0 0 0 0 -0 -0 0 0 0 0 -0 -0 -0 -0 0 -0 0 0 0 0 0 0
-0 -0 -0 0 0 0 0 0 0 0 0 0 0 0 0 0 0 0 0 0 0 0 0 0 0 0 0 0 0 0 0 0 0 0 0 0 -0 0 -0 0 0 -0 -0 -0 -0 -0 -0 -0 -0 -0 0 0 0 0
0 -0 -0 0 0 0 0 0 0 0 0 0 0 0 0 0 0 0 0 0 0 0 0 0 0 0 0 0 0 0 0 0 0 0 -0 -0 0 0 0 -0 -0 -0 -0 -0 -0 -0 -0 -0 -0 0 0 0 0 0
0 -0 0 0 0 0 0 0 0 0 0 0 0 0 0 0 0 0 0 0 0 0 0 0 0 0 0 0 0 0 0 0 0 -0 -0 -0 0 -0 -0 -0 -0 0 0 -0 -0 -0 -0 -0 0 0 0 0 0 0
0 0 0 0 0 0 0 0 0 0 0 0 0 0 0 0 0 0 0 0 0 0 0 0 0 0 0 0 0 0 0 0 -0 -0 0 -0 -0 -0 -0 0 0 -0 -0 -0 0 -0 0 0 0 0 0 0 0 0
0 0 0 0 0 0 0 0 0 0 0 0 0 0 0 0 0 0 0 0 0 -0 0 0 0 0 0 0 0 0 0 -0 -0 0 0 0 -0 0 -0 -0 -0 -0 -0 -0 -0 0 0 0 0 0 0 0 0 0
0 0 0 0 0 0 0 0 0 0 0 0 0 0 0 0 0 0 0 0 0 0 0 0 0 0 0 0 0 0 0 0 0 0 0 0 -0 -0 -0 -0 -0 -0 -0 0 0 0 0 0 0 0 0 0 0 0
0 0 0 0 0 0 0 0 0 0 0 0 0 0 0 0 0 0 0 0 0 0 0 0 0 0 0 0 0 0 0 0 0 0 0 0 0 0 0 -0 0 0 0 0 0 0 0 0 0 0 0 0 0 0
0 0 0 0 0 0 0 0 0 0 0 0 0 0 0 0 0 0 0 0 0 0 0 0 0 0 0 0 0 0 0 0 0 0 0 0 0 0 0 0 0 0 0 0 0 0 0 0 0 0 0 0 0 0
0 0 0 0 0 0 0 0 0 0 0 0 0 0 0 0 0 0 0 0 0 0 0 0 0 0 0 0 0 -0 0 0 0 0 0 0 0 0 0 0 0 0 0 0 0 0 0 0 0 0 0 0 0 0
0 0 0 0 0 0 0 0 0 0 0 0 0 0 0 0 0 0 0 0 0 0 0 0 0 0 0 0 0 0 0 0 0 0 0 0 0 0 0 0 0 0 0 0 0 0 0 0 0 0 0 0 0 0
0 0 0 0 0 0 0 0 0 0 0 0 0 -0 0 0 -0 0 0 0 0 0 -0 0 0 0 0 -0 0 0 0 0 0 0 0 0 0 0 0 0 0 0 0 0 0 0 0 0 0 0 0 0 0 0
0 0 0 0 0 0 0 0 0 0 0 0 0 -0 0 0 0 0 0 0 0 0 0 0 0 0 0 0 0 0 0 0 0 0 0 0 0 0 0 0 0 0 0 0 0 0 0 0 0 0 0 0 0 0
0 0 0 0 0 0 0 0 0 0 0 0 0 0 0 0 0 0 0 0 0 0 0 0 0 0 0 0 0 0 0 0 0 0 0 0 0 0 0 0 0 0 0 0 0 0 0 0 0 0 0 0 0 0
0 0 0 0 0 0 0 0 0 0 0 0 0 0 0 0 0 0 0 0 0 0 0 0 0 0 0 0 0 0 0 0 0 0 0 0 0 0 0 0 0 0 0 0 0 0 0 0 0 0 0 0 0 0
0 0 0 0 0 0 0 0 0 0 0 0 0 0 0 0 0 0 0 0 0 0 0 0 0 0 0 0 0 0 0 0 0 0 0 0 0 0 0 0 0 0 0 0 0 0 0 0 0 0 0 0 0 0
0 0 0 0 0 0 0 0 0 0 0 0 0 0 0 0 0 0 0 0 0 0 0 0 0 0 0 0 0 0 0 0 0 0 0 0 0 0 0 0 0 0 0 0 0 0 0 0 0 0 0 0 0 0
-0 -0 0 0 0 0 0 0 0 0 0 0 0 0 -0 -0 0 0 0 0 0 0 0 0 0 0 0 0 0 0 0 0 0 0 0 0 0 0 0 0 0 0 0 0 0 0 0 0 0 0 0 0 0 0
-0 -0 0 0 0 0 0 0 0 0 0 0 0 0 0 0 0 0 0 0 0 0 0 0 0 0 0 0 0 0 0 0 0 0 0 0 0 0 0 0 0 0 0 0 0 0 0 0 0 0 0 0 0 0
-0 -0 -0 -0 0 0 0 0 0 0 0 0 0 0 0 0 0 0 0 0 0 0 0 0 0 0 0 0 0 0 0 0 0 0 0 0 0 0 0 0 0 0 0 0 0 0 0 0 0 0 0 0 0 0
0 0 0 0 0 0 0 0 0 0 0 0 0 0 0 0 0 0 0 0 0 0 0 0 0 0 0 0 0 0 0 0 0 0 0 0 0 0 0 0 0 0 0 0 0 0 0 0 0 0 0 0 0 0
0 0 0 0 0 0 0 0 0 0 0 0 0 0 0 0 0 0 0 0 0 0 0 0 0 0 0 0 0 0 0 0 0 0 0 0 0 0 0 0 0 0 0 0 0 0 0 0 0 0 0 0 0 0
0 0 0 0 0 0 0 0 0 0 0 0 0 0 0 0 0 0 0 0 0 0 0 0 0 0 0 0 0 0 0 0 0 0 0 0 0 0 0 0 0 0 0 0 0 0 0 0 0 0 0 0 0 0
Wind_Speed_500mb
56 55 55 59 61 66 63 57 57 58 65 69 66 60 56 52 45 40 39 32 26 17 21 20 20 21 18 10 7 5 6 9 7 7 3 2 1 4 3 3 5 5 7 5 4 6 2 37 7 5 12 14 17 19
59 59 57 64 59 61 60 55 51 52 59 62 58 52 48 43 38 32 41 33 31 23 28 31 29 22 19 15 16 6 8 5 4 6 2 2 3 4 6 3 6 6 5 4 9 5 10 22 28 22 16 19 13 17
54 59 57 61 64 59 55 49 47 49 55 58 54 50 44 38 33 30 45 40 38 48 33 23 21 13 13 8 12 10 7 6 6 4 8 3 2 1 4 4 3 4 10 6 3 6 12 15 18 18 20 22 15 12
55 52 51 54 59 59 52 49 47 50 51 55 53 48 43 38 33 28 45 42 33 24 12 10 25 24 22 20 21 21 19 9 4 2 4 4 3 4 3 4 5 4 5 7 6 12 15 15 14 18 21 19 15 13
54 48 52 61 60 53 48 48 49 50 47 51 51 47 43 37 34 33 41 32 29 12 12 19 26 19 19 17 17 15 11 7 4 3 3 1 1 3 3 3 4 7 4 0 2 17 9 13 16 12 13 15 13 8
51 54 52 57 59 51 48 47 53 50 47 47 50 49 44 41 39 41 17 18 28 47 20 5 12 13 16 16 12 9 7 4 3 2 1 2 2 2 4 3 6 8 3 9 10 11 24 28 20 13 13 13 12 9
59 63 59 56 52 48 48 51 53 47 45 44 45 45 43 37 30 12 12 26 24 20 12 8 5 9 21 18 10 7 4 2 1 1 1 2 4 3 2 3 15 17 25 30 28 32 22 19 12 13 8 10 8 8
63 61 60 55 53 53 58 58 53 49 46 43 44 44 42 33 25 27 32 28 20 16 12 6 2 9 13 9 5 5 5 3 1 1 0 1 4 5 4 17 23 25 26 15 12 10 15 19 21 15 8 3 0 2
67 63 56 53 53 52 56 56 50 50 47 46 52 52 45 28 13 23 26 20 21 13 10 6 8 7 16 8 6 5 4 3 1 2 2 3 2 2 1 21 25 24 12 25 21 18 21 21 19 12 6 4 3 3
67 61 56 52 49 49 51 52 49 46 48 56 44 14 12 18 42 32 7 5 8 8 8 6 7 6 10 7 4 6 3 2 2 3 6 2 2 6 8 19 20 20 19 28 27 19 19 18 14 9 4 3 4 6
64 59 56 54 48 47 50 52 51 44 45 13 10 10 43 28 7 7 7 5 2 7 5 7 6 7 6 6 4 3 4 1 2 4 5 3 4 13 23 25 20 16 17 17 14 12 12 10 10 5 5 7 7 9
58 55 52 54 46 43 49 50 51 43 14 11 32 34 18 6 7 8 4 3 3 4 8 12 10 7 9 4 6 4 4 3 3 2 3 4 5 26 35 27 20 11 4 7 9 11 14 13 10 8 8 8 9 9
52 53 54 51 45 43 49 50 40 23 50 35 12 8 4 5 9 7 8 1 2 9 15 13 6 9 8 4 7 1 5 6 2 4 6 7 19 37 36 28 21 14 11 11 14 13 13 13 12 10 11 12 10 8
52 56 52 48 43 44 49 45 34 36 8 8 6 7 5 3 3 6 6 6 3 7 33 27 13 6 6 4 5 7 6 2 3 1 9 5 40 46 36 27 19 18 14 12 13 16 16 14 15 15 13 9 5 4
56 52 49 44 41 39 39 35 26 14 9 8 7 6 2 4 6 2 1 2 4 27 35 18 13 6 3 6 2 3 4 3 8 8 6 19 44 47 38 30 23 20 17 15 17 20 19 17 14 11 8 5 3 2
50 52 47 44 39 35 32 28 21 11 7 7 6 4 8 2 4 3 1 3 11 39 22 6 6 7 2 7 5 7 5 9 7 5 4 30 44 41 33 27 22 18 16 20 22 20 17 14 11 9 7 6 6 6
54 51 46 41 38 35 31 30 15 6 6 5 5 7 4 1 5 3 1 7 31 26 3 6 6 10 3 4 2 6 8 6 3 4 14 32 37 36 31 27 21 21 24 24 22 20 15 12 10 8 2 5 7 12
43 51 45 40 36 34 27 9 7 6 7 6 5 12 7 5 4 6 11 14 18 16 9 5 10 5 8 8 6 6 8 8 7 11 21 30 29 28 24 21 23 25 26 24 20 16 13 12 8 4 2 7 10 15
52 49 41 36 33 19 7 4 6 6 4 4 4 7 7 9 13 11 10 11 16 12 7 5 6 4 6 10 7 9 14 14 16 25 28 28 25 24 24 24 26 27 25 21 17 14 15 11 4 4 9 15 19 21
44 43 39 38 20 7 7 6 7 4 1 2 4 1 5 7 8 7 4 5 10 5 1 1 6 5 3 3 2 2 5 15 19 30 31 30 27 26 25 26 26 26 24 23 20 16 12 7 7 10 17 22 22 26
47 45 43 29 6 8 5 6 6 5 4 3 5 8 3 4 4 2 3 5 1 4 6 10 8 7 5 4 8 6 8 13 16 16 22 36 34 29 28 28 27 24 21 20 16 13 7 6 11 17 21 22 27 30
43 49 37 22 4 6 2 6 2 9 6 3 12 5 4 5 6 3 3 5 7 20 13 9 7 10 5 8 3 8 9 13 16 16 12 21 38 39 37 33 30 25 22 18 13 10 11 14 17 20 23 27 30 31
52 32 13 5 2 3 6 14 4 7 4 10 10 3 3 3 9 7 5 9 11 18 19 19 15 15 10 5 7 10 11 11 11 13 13 20 26 27 29 30 23 19 16 13 10 12 14 15 19 23 27 29 31 34
30 8 6 9 3 3 3 7 6 6 5 5 4 3 1 4 12 4 5 7 10 10 17 20 19 17 14 13 13 11 14 15 12 15 21 28 33 32 27 23 21 18 14 13 12 13 15 18 20 24 26 29 31 33
7 5 4 2 3 2 6 6 5 4 3 3 4 1 2 7 3 3 5 5 5 11 14 16 18 16 13 15 17 18 17 12 10 16 25 24 27 29 26 22 19 15 11 10 13 13 15 19 21 23 25 28 32 34
3 7 6 11 4 5 7 4 5 9 5 3 2 5 4 5 2 9 5 5 7 5 11 12 13 10 14 15 18 20 18 19 17 15 22 23 17 9 12 13 11 10 10 9 11 15 18 18 18 20 23 27 30 34
4 7 6 10 5 4 1 2 3 5 6 8 5 5 5 3 9 6 2 1 2 3 8 15 12 4 5 17 20 19 19 21 19 15 18 23 20 16 10 6 10 12 11 12 14 14 13 13 15 19 24 29 32 34
9 14 10 14 10 9 8 3 5 8 6 9 19 5 12 14 7 4 6 3 2 4 9 14 15 12 7 8 15 20 26 26 22 18 19 23 23 21 18 16 15 13 12 10 8 7 9 13 18 24 27 31 34 37
11 14 16 8 7 7 11 14 10 10 10 14 11 6 7 8 7 9 5 5 8 8 4 7 15 17 14 16 21 24 20 20 18 18 18 19 19 17 16 13 10 8 6 4 5 9 14 19 24 28 30 33 33 34
18 28 12 10 8 9 10 14 7 10 14 16 12 9 9 8 8 11 10 12 15 15 11 7 12 20 21 24 29 30 25 20 18 13 7 12 14 11 11 9 7 5 1 5 11 16 20 25 28 30 29 30 32 34
16 25 10 13 8 8 13 14 12 12 12 13 15 12 9 8 11 15 17 17 19 19 13 10 15 23 28 29 28 29 28 23 17 12 7 9 12 11 10 10 8 3 3 9 14 19 22 24 24 23 25 28 31 33
17 15 13 6 6 8 11 11 9 8 7 9 10 12 10 10 11 10 17 23 21 20 15 9 12 20 27 24 23 21 17 15 17 12 9 10 12 13 12 9 3 3 8 12 16 19 20 19 20 22 26 28 30 31
10 12 8 8 7 8 11 11 9 5 7 5 6 10 13 9 9 13 12 25 22 16 14 15 17 23 27 26 22 18 18 19 20 19 17 16 15 12 8 3 3 7 12 15 15 15 16 17 19 22 26 28 29 30
Wind_Direction_500mb
144 139 134 130 132 133 135 137 138 136 140 146 149 149 150 157 161 169 150 153 143 104 125 129 128 134 125 135 134 166 77 11 38 62 70 3 357 345 298 40 13 54 320 10 342 55 25 356 6 56 106 87 82 69
148 143 140 134 135 135 134 131 131 136 144 146 148 149 152 152 158 163 148 147 129 115 130 121 115 120 124 117 138 102 114 110 133 94 70 90 354 352 311 103 18 57 49 21 6 74 54 36 64 79 105 118 101 104
149 145 141 140 139 139 135 135 136 137 142 147 150 148 146 144 147 151 148 137 129 113 103 109 104 128 151 136 133 116 95 102 99 76 149 150 99 190 347 75 104 92 40 88 185 96 78 68 81 85 85 97 110 107
142 140 141 140 139 135 135 133 132 136 143 148 149 144 139 136 130 136 145 143 134 114 104 92 118 111 109 117 106 95 104 103 98 71 103 130 134 11 12 48 64 2 346 100 76 112 103 86 94 120 98 94 96 107
141 143 146 148 142 135 133 132 134 137 137 143 146 144 139 134 124 128 139 136 140 111 131 128 119 126 132 114 107 98 85 75 83 92 64 221 222 77 55 42 66 15 28 36 120 154 115 126 127 124 110 105 94 83
150 153 153 144 136 138 136 134 136 134 129 129 141 147 146 136 127 124 92 105 116 117 108 101 115 108 169 165 124 107 115 80 70 89 189 299 24 66 88 83 78 63 94 145 135 151 126 129 124 129 120 108 92 67
140 135 133 133 135 134 137 139 137 137 129 124 129 148 152 151 152 79 116 136 128 114 98 89 67 121 134 133 116 141 182 131 34 83 20 0 41 60 84 132 134 99 103 110 114 120 118 142 151 156 126 109 86 68
137 136 139 137 136 138 138 136 132 130 128 127 125 128 136 140 124 95 110 121 106 90 84 101 74 121 143 126 137 147 150 159 88 60 320 42 67 74 85 131 135 131 126 114 86 109 123 136 155 157 152 142 352 18
145 141 141 136 137 135 141 142 135 131 124 124 124 118 113 99 73 109 112 108 70 79 102 93 139 161 160 132 130 121 121 50 240 76 256 109 341 172 161 147 154 159 150 148 132 134 142 155 160 168 199 259 281 109
142 143 143 140 136 134 139 147 146 132 128 123 123 92 91 105 118 115 113 78 45 53 70 93 122 113 140 144 89 116 116 149 104 263 140 95 133 170 170 167 166 177 176 173 156 155 169 168 172 175 171 127 110 95
148 149 148 143 138 135 140 144 146 138 139 106 69 75 122 127 107 77 78 59 45 30 105 109 123 120 128 106 169 170 172 260 85 239 143 256 245 186 161 149 144 138 162 184 227 240 207 203 189 176 138 115 98 91
153 150 149 143 142 137 143 144 147 150 132 111 123 115 121 81 76 83 59 95 109 167 155 134 153 97 107 114 106 168 113 22 198 156 145 278 244 166 168 166 158 153 161 172 166 171 168 165 159 146 128 109 103 93
141 145 143 142 144 140 146 144 142 135 124 113 96 91 93 33 73 153 159 233 218 177 162 149 123 133 113 108 79 123 86 215 178 55 226 227 167 168 171 171 163 168 165 158 153 154 151 150 144 136 129 124 115 100
147 144 146 148 146 144 150 147 137 142 74 65 65 73 93 128 163 184 187 189 141 164 150 137 106 110 111 108 161 95 237 187 80 357 238 217 181 175 176 174 179 178 174 168 162 156 152 149 139 131 128 126 116 91
145 147 151 153 149 147 155 160 152 136 52 69 40 94 110 241 261 281 121 22 94 148 146 107 85 125 37 93 171 148 138 258 209 229 235 179 177 178 179 180 180 176 170 163 154 152 146 139 135 131 120 102 78 52
146 145 153 154 151 147 147 147 138 121 50 68 62 68 6 349 32 77 88 92 131 149 141 98 103 60 307 135 87 201 176 227 250 225 209 168 175 180 181 177 171 174 171 161 155 152 151 149 142 130 111 82 64 28
148 143 153 154 152 148 148 139 106 68 52 68 37 26 37 294 272 360 188 156 154 155 146 112 95 200 120 43 277 176 214 219 234 199 170 176 176 176 176 180 185 181 169 165 165 164 165 157 154 155 174 297 326 335
149 150 157 156 154 148 136 90 71 74 69 58 36 15 11 47 20 85 78 143 154 178 157 191 134 103 162 175 261 233 189 186 152 147 158 170 178 181 186 190 182 173 170 168 171 177 177 174 174 216 336 326 326 326
153 152 154 151 144 111 100 104 34 70 48 78 329 333 48 83 74 93 86 167 140 147 150 151 82 185 226 217 235 195 198 185 170 161 160 167 179 188 185 178 175 171 172 175 174 174 175 185 223 322 338 327 319 317
151 151 151 146 130 76 87 86 154 108 142 177 207 73 95 88 109 81 46 63 125 128 163 146 207 219 203 282 262 252 228 197 186 170 174 177 180 185 186 180 174 171 172 172 178 186 204 232 271 305 311 311 311 310
150 155 159 158 134 58 97 153 153 165 170 171 168 161 120 156 137 90 322 228 248 240 227 222 213 221 202 299 281 272 196 199 205 215 206 190 186 183 179 172 177 179 184 186 197 197 220 271 283 293 301 305 309 313
155 167 158 161 50 7 38 170 106 150 159 161 167 197 191 200 129 89 260 212 242 234 231 234 255 214 225 322 260 172 170 188 193 203 199 195 188 182 179 181 181 181 179 180 193 221 252 280 290 296 302 307 309 311
150 143 119 115 332 323 310 160 155 164 107 174 158 163 254 216 111 140 258 231 249 242 235 230 220 208 230 246 202 181 171 182 200 203 202 183 180 174 176 178 175 186 197 212 239 260 270 281 288 294 299 303 308 314
134 99 128 167 188 299 253 189 163 147 149 164 150 179 202 129 132 205 245 247 238 241 226 216 209 208 207 203 195 182 171 165 165 155 156 167 164 162 168 180 190 194 211 236 255 267 278 287 295 300 304 309 317 323
115 155 173 181 187 277 21 20 18 78 201 231 111 295 178 138 111 236 234 265 304 240 218 209 207 217 226 208 190 177 177 183 178 165 161 171 176 175 175 182 195 213 235 256 269 277 292 301 302 307 313 318 321 324
137 190 155 188 204 180 189 150 195 188 177 224 276 100 143 93 59 246 243 352 2 352 213 212 211 227 216 204 199 189 190 187 184 181 175 175 179 191 204 201 213 232 251 263 281 298 305 307 310 315 318 321 322 322
234 248 192 188 178 162 113 233 161 123 168 174 178 174 87 154 244 248 182 316 302 352 185 186 202 267 266 202 190 183 179 171 175 190 188 187 183 182 191 211 232 244 262 280 296 305 309 315 318 321 323 325 326 326
208 190 165 182 190 201 156 152 180 216 226 174 145 175 180 194 234 173 176 241 194 132 159 182 195 194 187 199 198 190 179 178 181 182 185 190 195 204 222 233 243 253 264 283 295 312 324 329 330 329 328 328 331 333
189 179 165 159 185 203 220 202 218 199 178 178 170 214 212 194 190 190 194 201 162 160 151 209 197 193 192 182 178 179 185 188 194 190 191 199 200 202 213 214 219 235 247 266 313 333 336 334 331 332 334 336 337 337
183 172 159 162 187 220 220 211 232 215 205 201 197 180 186 196 200 208 207 198 179 182 186 194 215 205 199 189 181 181 183 184 187 185 199 220 211 204 196 196 188 180 202 330 334 338 335 334 335 336 339 338 338 339
174 177 147 182 221 216 220 216 218 226 231 231 232 233 215 215 219 220 211 206 199 193 197 211 207 206 203 199 197 193 190 198 204 197 202 192 180 176 170 162 157 160 329 337 338 335 333 333 335 338 339 340 341 341
171 184 160 170 222 202 192 196 208 219 226 220 214 207 197 199 217 221 207 202 199 195 191 193 199 201 195 193 185 185 191 193 190 184 173 164 161 153 148 144 131 355 343 338 333 332 334 339 343 344 344 344 345 345
147 158 147 140 142 182 191 188 211 231 231 237 227 206 202 208 235 211 207 193 179 165 174 172 165 167 168 170 178 180 169 165 166 162 156 151 145 140 134 108 16 351 341 339 340 343 347 350 350 350 350 350 349 348
Wind_Speed_850mb
56 55 55 59 61 66 63 57 57 58 65 69 66 60 56 52 45 40 39 32 26 17 21 20 20 21 18 10 7 5 6 9 7 7 3 2 1 4 3 3 5 5 7 5 4 6 2 37 7 5 12 14 17 19
59 59 57 64 59 61 60 55 51 52 59 62 58 52 48 43 38 32 41 33 31 23 28 31 29 22 19 15 16 6 8 5 4 6 2 2 3 4 6 3 6 6 5 4 9 5 10 22 28 22 16 19 13 17
54 59 57 61 64 59 55 49 47 49 55 58 54 50 44 38 33 30 45 40 38 48 33 23 21 13 13 8 12 10 7 6 6 4 8 3 2 1 4 4 3 4 10 6 3 6 12 15 18 18 20 22 15 12
55 52 51 54 59 59 52 49 47 50 51 55 53 48 43 38 33 28 45 42 33 24 12 10 25 24 22 20 21 21 19 9 4 2 4 4 3 4 3 4 5 4 5 7 6 12 15 15 14 18 21 19 15 13
54 48 52 61 60 53 48 48 49 50 47 51 51 47 43 37 34 33 41 32 29 12 12 19 26 19 19 17 17 15 11 7 4 3 3 1 1 3 3 3 4 7 4 0 2 17 9 13 16 12 13 15 13 8
51 54 52 57 59 51 48 47 53 50 47 47 50 49 44 41 39 41 17 18 28 47 20 5 12 13 16 16 12 9 7 4 3 2 1 2 2 2 4 3 6 8 3 9 10 11 24 28 20 13 13 13 12 9
59 63 59 56 52 48 48 51 53 47 45 44 45 45 43 37 30 12 12 26 24 20 12 8 5 9 21 18 10 7 4 2 1 1 1 2 4 3 2 3 15 17 25 30 28 32 22 19 12 13 8 10 8 8
63 61 60 55 53 53 58 58 53 49 46 43 44 44 42 33 25 27 32 28 20 16 12 6 2 9 13 9 5 5 5 3 1 1 0 1 4 5 4 17 23 25 26 15 12 10 15 19 21 15 8 3 0 2
67 63 56 53 53 52 56 56 50 50 47 46 52 52 45 28 13 23 26 20 21 13 10 6 8 7 16 8 6 5 4 3 1 2 2 3 2 2 1 21 25 24 12 25 21 18 21 21 19 12 6 4 3 3
67 61 56 52 49 49 51 52 49 46 48 56 44 14 12 18 42 32 7 5 8 8 8 6 7 6 10 7 4 6 3 2 2 3 6 2 2 6 8 19 20 20 19 28 27 19 19 18 14 9 4 3 4 6
64 59 56 54 48 47 50 52 51 44 45 13 10 10 43 28 7 7 7 5 2 7 5 7 6 7 6 6 4 3 4 1 2 4 5 3 4 13 23 25 20 16 17 17 14 12 12 10 10 5 5 7 7 9
58 55 52 54 46 43 49 50 51 43 14 11 32 34 18 6 7 8 4 3 3 4 8 12 10 7 9 4 6 4 4 3 3 2 3 4 5 26 35 27 20 11 4 7 9 11 14 13 10 8 8 8 9 9
52 53 54 51 45 43 49 50 40 23 50 35 12 8 4 5 9 7 8 1 2 9 15 13 6 9 8 4 7 1 5 6 2 4 6 7 19 37 36 28 21 14 11 11 14 13 13 13 12 10 11 12 10 8
52 56 52 48 43 44 49 45 34 36 8 8 6 7 5 3 3 6 6 6 3 7 33 27 13 6 6 4 5 7 6 2 3 1 9 5 40 46 36 27 19 18 14 12 13 16 16 14 15 15 13 9 5 4
56 52 49 44 41 39 39 35 26 14 9 8 7 6 2 4 6 2 1 2 4 27 35 18 13 6 3 6 2 3 4 3 8 8 6 19 44 47 38 30 23 20 17 15 17 20 19 17 14 11 8 5 3 2
50 52 47 44 39 35 32 28 21 11 7 7 6 4 8 2 4 3 1 3 11 39 22 6 6 7 2 7 5 7 5 9 7 5 4 30 44 41 33 27 22 18 16 20 22 20 17 14 11 9 7 6 6 6
54 51 46 41 38 35 31 30 15 6 6 5 5 7 4 1 5 3 1 7 31 26 3 6 6 10 3 4 2 6 8 6 3 4 14 32 37 36 31 27 21 21 24 24 22 20 15 12 10 8 2 5 7 12
43 51 45 40 36 34 27 9 7 6 7 6 5 12 7 5 4 6 11 14 18 16 9 5 10 5 8 8 6 6 8 8 7 11 21 30 29 28 24 21 23 25 26 24 20 16 13 12 8 4 2 7 10 15
52 49 41 36 33 19 7 4 6 6 4 4 4 7 7 9 13 11 10 11 16 12 7 5 6 4 6 10 7 9 14 14 16 25 28 28 25 24 24 24 26 27 25 21 17 14 15 11 4 4 9 15 19 21
44 43 39 38 20 7 7 6 7 4 1 2 4 1 5 7 8 7 4 5 10 5 1 1 6 5 3 3 2 2 5 15 19 30 31 30 27 26 25 26 26 26 24 23 20 16 12 7 7 10 17 22 22 26
47 45 43 29 6 8 5 6 6 5 4 3 5 8 3 4 4 2 3 5 1 4 6 10 8 7 5 4 8 6 8 13 16 16 22 36 34 29 28 28 27 24 21 20 16 13 7 6 11 17 21 22 27 30
43 49 37 22 4 6 2 6 2 9 6 3 12 5 4 5 6 3 3 5 7 20 13 9 7 10 5 8 3 8 9 13 16 16 12 21 38 39 37 33 30 25 22 18 13 10 11 14 17 20 23 27 30 31
52 32 13 5 2 3 6 14 4 7 4 10 10 3 3 3 9 7 5 9 11 18 19 19 15 15 10 5 7 10 11 11 11 13 13 20 26 27 29 30 23 19 16 13 10 12 14 15 19 23 27 29 31 34
30 8 6 9 3 3 3 7 6 6 5 5 4 3 1 4 12 4 5 7 10 10 17 20 19 17 14 13 13 11 14 15 12 15 21 28 33 32 27 23 21 18 14 13 12 13 15 18 20 24 26 29 31 33
7 5 4 2 3 2 6 6 5 4 3 3 4 1 2 7 3 3 5 5 5 11 14 16 18 16 13 15 17 18 17 12 10 16 25 24 27 29 26 22 19 15 11 10 13 13 15 19 21 23 25 28 32 34
3 7 6 11 4 5 7 4 5 9 5 3 2 5 4 5 2 9 5 5 7 5 11 12 13 10 14 15 18 20 18 19 17 15 22 23 17 9 12 13 11 10 10 9 11 15 18 18 18 20 23 27 30 34
4 7 6 10 5 4 1 2 3 5 6 8 5 5 5 3 9 6 2 1 2 3 8 15 12 4 5 17 20 19 19 21 19 15 18 23 20 16 10 6 10 12 11 12 14 14 13 13 15 19 24 29 32 34
9 14 10 14 10 9 8 3 5 8 6 9 19 5 12 14 7 4 6 3 2 4 9 14 15 12 7 8 15 20 26 26 22 18 19 23 23 21 18 16 15 13 12 10 8 7 9 13 18 24 27 31 34 37
11 14 16 8 7 7 11 14 10 10 10 14 11 6 7 8 7 9 5 5 8 8 4 7 15 17 14 16 21 24 20 20 18 18 18 19 19 17 16 13 10 8 6 4 5 9 14 19 24 28 30 33 33 34
18 28 12 10 8 9 10 14 7 10 14 16 12 9 9 8 8 11 10 12 15 15 11 7 12 20 21 24 29 30 25 20 18 13 7 12 14 11 11 9 7 5 1 5 11 16 20 25 28 30 29 30 32 34
16 25 10 13 8 8 13 14 12 12 12 13 15 12 9 8 11 15 17 17 19 19 13 10 15 23 28 29 28 29 28 23 17 12 7 9 12 11 10 10 8 3 3 9 14 19 22 24 24 23 25 28 31 33
17 15 13 6 6 8 11 11 9 8 7 9 10 12 10 10 11 10 17 23 21 20 15 9 12 20 27 24 23 21 17 15 17 12 9 10 12 13 12 9 3 3 8 12 16 19 20 19 20 22 26 28 30 31
10 12 8 8 7 8 11 11 9 5 7 5 6 10 13 9 9 13 12 25 22 16 14 15 17 23 27 26 22 18 18 19 20 19 17 16 15 12 8 3 3 7 12 15 15 15 16 17 19 22 26 28 29 30
Wind_Direction_850mb
144 139 134 130 132 133 135 137 138 136 140 146 149 149 150 157 161 169 150 153 143 104 125 129 128 134 125 135 134 166 77 11 38 62 70 3 357 345 298 40 13 54 320 10 342 55 25 356 6 56 106 87 82 69
148 143 140 134 135 135 134 131 131 136 144 146 148 149 152 152 158 163 148 147 129 115 130 121 115 120 124 117 138 102 114 110 133 94 70 90 354 352 311 103 18 57 49 21 6 74 54 36 64 79 105 118 101 104
149 145 141 140 139 139 135 135 136 137 142 147 150 148 146 144 147 151 148 137 129 113 103 109 104 128 151 136 133 116 95 102 99 76 149 150 99 190 347 75 104 92 40 88 185 96 78 68 81 85 85 97 110 107
142 140 141 140 139 135 135 133 132 136 143 148 149 144 139 136 130 136 145 143 134 114 104 92 118 111 109 117 106 95 104 103 98 71 103 130 134 11 12 48 64 2 346 100 76 112 103 86 94 120 98 94 96 107
141 143 146 148 142 135 133 132 134 137 137 143 146 144 139 134 124 128 139 136 140 111 131 128 119 126 132 114 107 98 85 75 83 92 64 221 222 77 55 42 66 15 28 36 120 154 115 126 127 124 110 105 94 83
150 153 153 144 136 138 136 134 136 134 129 129 141 147 146 136 127 124 92 105 116 117 108 101 115 108 169 165 124 107 115 80 70 89 189 299 24 66 88 83 78 63 94 145 135 151 126 129 124 129 120 108 92 67
140 135 133 133 135 134 137 139 137 137 129 124 129 148 152 151 152 79 116 136 128 114 98 89 67 121 134 133 116 141 182 131 34 83 20 0 41 60 84 132 134 99 103 110 114 120 118 142 151 156 126 109 86 68
137 136 139 137 136 138 138 136 132 130 128 127 125 128 136 140 124 95 110 121 106 90 84 101 74 121 143 126 137 147 150 159 88 60 320 42 67 74 85 131 135 131 126 114 86 109 123 136 155 157 152 142 352 18
145 141 141 136 137 135 141 142 135 131 124 124 124 118 113 99 73 109 112 108 70 79 102 93 139 161 160 132 130 121 121 50 240 76 256 109 341 172 161 147 154 159 150 148 132 134 142 155 160 168 199 259 281 109
142 143 143 140 136 134 139 147 146 132 128 123 123 92 91 105 118 115 113 78 45 53 70 93 122 113 140 144 89 116 116 149 104 263 140 95 133 170 170 167 166 177 176 173 156 155 169 168 172 175 171 127 110 95
148 149 148 143 138 135 140 144 146 138 139 106 69 75 122 127 107 77 78 59 45 30 105 109 123 120 128 106 169 170 172 260 85 239 143 256 245 186 161 149 144 138 162 184 227 240 207 203 189 176 138 115 98 91
153 150 149 143 142 137 143 144 147 150 132 111 123 115 121 81 76 83 59 95 109 167 155 134 153 97 107 114 106 168 113 22 198 156 145 278 244 166 168 166 158 153 161 172 166 171 168 165 159 146 128 109 103 93
141 145 143 142 144 140 146 144 142 135 124 113 96 91 93 33 73 153 159 233 218 177 162 149 123 133 113 108 79 123 86 215 178 55 226 227 167 168 171 171 163 168 165 158 153 154 151 150 144 136 129 124 115 100
147 144 146 148 146 144 150 147 137 142 74 65 65 73 93 128 163 184 187 189 141 164 150 137 106 110 111 108 161 95 237 187 80 357 238 217 181 175 176 174 179 178 174 168 162 156 152 149 139 131 128 126 116 91
145 147 151 153 149 147 155 160 152 136 52 69 40 94 110 241 261 281 121 22 94 148 146 107 85 125 37 93 171 148 138 258 209 229 235 179 177 178 179 180 180 176 170 163 154 152 146 139 135 131 120 102 78 52
146 145 153 154 151 147 147 147 138 121 50 68 62 68 6 349 32 77 88 92 131 149 141 98 103 60 307 135 87 201 176 227 250 225 209 168 175 180 181 177 171 174 171 161 155 152 151 149 142 130 111 82 64 28
148 143 153 154 152 148 148 139 106 68 52 68 37 26 37 294 272 360 188 156 154 155 146 112 95 200 120 43 277 176 214 219 234 199 170 176 176 176 176 180 185 181 169 165 165 164 165 157 154 155 174 297 326 335
149 150 157 156 154 148 136 90 71 74 69 58 36 15 11 47 20 85 78 143 154 178 157 191 134 103 162 175 261 233 189 186 152 147 158 170 178 181 186 190 182 173 170 168 171 177 177 174 174 216 336 326 326 326
153 152 154 151 144 111 100 104 34 70 48 78 329 333 48 83 74 93 86 167 140 147 150 151 82 185 226 217 235 195 198 185 170 161 160 167 179 188 185 178 175 171 172 175 174 174 175 185 223 322 338 327 319 317
151 151 151 146 130 76 87 86 154 108 142 177 207 73 95 88 109 81 46 63 125 128 163 146 207 219 203 282 262 252 228 197 186 170 174 177 180 185 186 180 174 171 172 172 178 186 204 232 271 305 311 311 311 310
150 155 159 158 134 58 97 153 153 165 170 171 168 161 120 156 137 90 322 228 248 240 227 222 213 221 202 299 281 272 196 199 205 215 206 190 186 183 179 172 177 179 184 186 197 197 220 271 283 293 301 305 309 313
155 167 158 161 50 7 38 170 106 150 159 161 167 197 191 200 129 89 260 212 242 234 231 234 255 214 225 322 260 172 170 188 193 203 199 195 188 182 179 181 181 181 179 180 193 221 252 280 290 296 302 307 309 311
150 143 119 115 332 323 310 160 155 164 107 174 158 163 254 216 111 140 258 231 249 242 235 230 220 208 230 246 202 181 171 182 200 203 202 183 180 174 176 178 175 186 197 212 239 260 270 281 288 294 299 303 308 314
134 99 128 167 188 299 253 189 163 147 149 164 150 179 202 129 132 205 245 247 238 241 226 216 209 208 207 203 195 182 171 165 165 155 156 167 164 162 168 180 190 194 211 236 255 267 278 287 295 300 304 309 317 323
115 155 173 181 187 277 21 20 18 78 201 231 111 295 178 138 111 236 234 265 304 240 218 209 207 217 226 208 190 177 177 183 178 165 161 171 176 175 175 182 195 213 235 256 269 277 292 301 302 307 313 318 321 324
137 190 155 188 204 180 189 150 195 188 177 224 276 100 143 93 59 246 243 352 2 352 213 212 211 227 216 204 199 189 190 187 184 181 175 175 179 191 204 201 213 232 251 263 281 298 305 307 310 315 318 321 322 322
234 248 192 188 178 162 113 233 161 123 168 174 178 174 87 154 244 248 182 316 302 352 185 186 202 267 266 202 190 183 179 171 175 190 188 187 183 182 191 211 232 244 262 280 296 305 309 315 318 321 323 325 326 326
208 190 165 182 190 201 156 152 180 216 226 174 145 175 180 194 234 173 176 241 194 132 159 182 195 194 187 199 198 190 179 178 181 182 185 190 195 204 222 233 243 253 264 283 295 312 324 329 330 329 328 328 331 333
189 179 165 159 185 203 220 202 218 199 178 178 170 214 212 194 190 190 194 201 162 160 151 209 197 193 192 182 178 179 185 188 194 190 191 199 200 202 213 214 219 235 247 266 313 333 336 334 331 332 334 336 337 337
183 172 159 162 187 220 220 211 232 215 205 201 197 180 186 196 200 208 207 198 179 182 186 194 215 205 199 189 181 181 183 184 187 185 199 220 211 204 196 196 188 180 202 330 334 338 335 334 335 336 339 338 338 339
174 177 147 182 221 216 220 216 218 226 231 231 232 233 215 215 219 220 211 206 199 193 197 211 207 206 203 199 197 193 190 198 204 197 202 192 180 176 170 162 157 160 329 337 338 335 333 333 335 338 339 340 341 341
171 184 160 170 222 202 192 196 208 219 226 220 214 207 197 199 217 221 207 202 199 195 191 193 199 201 195 193 185 185 191 193 190 184 173 164 161 153 148 144 131 355 343 338 333 332 334 339 343 344 344 344 345 345
147 158 147 140 142 182 191 188 211 231 231 237 227 206 202 208 235 211 207 193 179 165 174 172 165 167 168 170 178 180 169 165 166 162 156 151 145 140 134 108 16 351 341 339 340 343 347 350 350 350 350 350 349 348